Location: Pian di Sc�
(43.6333°N, 11.5500°E)
Time: 14:24:10
(UTC+00:00)

ADEOS II - Pass Details

Date: 07 August 2020
Orbit: 799 x 802 km, 98.5° (Epoch: 24 September)

Event Time Altitude Azimuth Distance (km) Brightness Sun altitude
Rises 00:38:58 0° 25° (NNE) 3,319 6.6 -27.3°
Reaches altitude 10° 00:41:42 10° 38° (NE) 2,383 5.5 -27.2°
Maximum altitude 00:46:03 26° 94° (E) 1,540 3.7 -26.8°
Enters shadow 00:47:26 23° 119° (ESE) 1,644 3.6 -26.7°
